SPORT (55129 NORAD) Tracking and Keplerian Element Data

This shows tracking and keplerian element data for the satellite.

Feedback or suggestion? Click here.




ElementValue
Catalog55129
NameSPORT
Epoch Orbit241
Epoch Day13.55870043
Epoch Year2023
RAAN14.3929
Inclination51.6428
Eccentricity0.0002147
Argument of Perigee275.6785
Mean Anonmoly84.3959
Mean Motion15.51119481
Decay Rate0.0003741
L11 55129U 98067UW 23013.55870043 .00037410 00000+0 63472-3 0 9992
L22 55129 51.6428 14.3929 0002147 275.6785 84.3959 15.51119481 2413



Live tracking and technical data element details for SPORT (NORAD 55129). SPORT can be tracked NOW for your location showing map with azimuth and elevation plus other details from your city location.







IsCatalogInMostPopularTable: catalog: 55129, numindb: 3
Update: records affected: 1



GetName: 55129 SPORT

Hit Count: updated at: Tue, 07 Feb 2023 16:06:33 GMT